Regional Weather Roundup
Issued by NWS

Home | Current Version | Previous Version | Graphics & Text | Print | Product List | Glossary On
Versions: 1 2 3 4 5 6 7 8 9 10 11 12 13 14 15 16 17 18 19 20 21 22 23 24 25 26 27 28 29 30 31 32 33 34 35 36 37 38 39 40 41 42 43 44 45 46 47 48 49 50
056
ASUS45 KTFX 200910
RWRMT
MONTANA REGIONAL WEATHER ROUNDUP
NATIONAL WEATHER SERVICE GREAT FALLS MT
300 AM MDT SUN AUG 20 2017

NOTE: "FAIR" INDICATES FEW OR NO CLOUDS BELOW 12000 FEET WITH NO
SIGNIFICANT WEATHER AND/OR OBSTRUCTIONS TO VISIBILITY.

MTZ001>007-043-201000-
WEST OF THE DIVIDE

CITY           SKY/WX    TMP DP  RH WIND       PRES   REMARKS
KALISPELL      CLEAR     43  39  86 CALM      30.05R
MISSOULA       CLEAR     53  38  56 CALM      30.10R
BUTTE          CLEAR     47  33  58 S7        30.17S
MULLAN PASS    CLEAR     50  31  48 NW5       30.19S
ANACONDA         N/A     48  34  57 CALM      30.15R
DEER LODGE       N/A     54  36  50 N6        30.15R
EUREKA           N/A     48  32  53 MISG      30.04R
HAMILTON         N/A     48  39  71 SE3       30.12R
LIBBY            N/A     48  36  61 S3        30.04S
RONAN            N/A     51  40  66 MISG      30.10S
$$

MTZ008-052>055-201000-
SOUTHWEST MONTANA

CITY           SKY/WX    TMP DP  RH WIND       PRES   REMARKS
BOZEMAN        CLEAR     53  41  63 CALM      30.08S
DILLON         CLEAR     53  33  46 SW5       30.12R
W YELLOWSTONE  CLEAR     39  34  81 S9        30.16S
ENNIS          CLOUDY    54  34  47 CALM      30.16R
THREE FORKS      N/A     57  35  43 CALM      30.07S
$$

MTZ009-010-012-014-046-048-049-054-201000-
EAST SLOPES AND CENTRAL MONTANA

CITY           SKY/WX    TMP DP  RH WIND       PRES   REMARKS
CUT BANK       CLEAR     51  35  54 S8        30.05S
GREAT FALLS    CLEAR     47  36  65 SW7       30.04R
MALMSTROM AFB  CLEAR     51  39  62 SW6       30.03S
HELENA         CLEAR     64  38  38 W7        30.08S
AUGUSTA          N/A     48  36  64 CALM      30.07S
BOWMANS CRNR     N/A     49  36  59 W7        30.05F
CHOTEAU          N/A     48  39  71 W5        30.07S
FAIRFIELD        N/A     49  35  58 N3        30.05S
POWER            N/A     45  32  58 N6        30.04S
RAYNESFORD       N/A     54  38  54 E8        30.05S
ULM              N/A     48  37  66 SE5       30.04S
$$

MTZ011-013-016-021-045-047-050-051-201000-
NORTH CENTRAL MONTANA

CITY           SKY/WX    TMP DP  RH WIND       PRES   REMARKS
HAVRE          PTCLDY    54  32  43 NE9       30.02F
LEWISTOWN      CLEAR     53  34  48 E7        30.07S
N BAR RANCH      N/A     50  36  57 W5        30.13S
CHINOOK          N/A     52  34  50 CALM      30.04S
DENTON           N/A     52  35  51 CALM      30.02S
GEYSER           N/A     51  36  57 NW3       30.06S
GRASS RANGE      N/A     48  34  58 SW7       30.05F
JUDITH GAP       N/A     51  37  58 SW15      30.10R
WINIFRED       MOCLDY    55  33  42 E17       30.04F
$$

MTZ017>020-022>027-061-062-201000-
NORTHEAST MONTANA

CITY           SKY/WX    TMP DP  RH WIND       PRES   REMARKS
GLASGOW        PTCLDY    53  31  42 NW5       30.03R
JORDAN           N/A     54  34  46 NE5       30.05R
SIDNEY         PTCLDY    53  39  59 N5        30.03R
WOLF POINT     CLEAR     53  33  46 CALM      30.03R
MALTA          CLOUDY    50  36  57 W3        30.04S
PLENTYWOOD       N/A     52  36  54 CALM      30.02S
POPLAR           N/A     55  34  44 NE5       30.03R
$$

MTZ028>42-056>058-201000-
SOUTHCENTRAL AND SOUTHEAST MONTANA

CITY           SKY/WX    TMP DP  RH WIND       PRES   REMARKS
BAKER          CLOUDY    61  38  42 N7        30.05R
BILLINGS       CLOUDY    60  38  43 N9        30.04S
LIVINGSTON     CLEAR     59  38  45 E12       30.08F
MILES CITY     CLOUDY    61  37  41 N9        30.04R
BIG TIMBER     PTCLDY    57  39  51 CALM      30.11F
HARLOWTON        N/A     55  42  61 MISG      30.10R
LAUREL           N/A     61  36  39 N2        30.03F
$$

REGIONAL REPORTS...DAKOTAS

CITY           SKY/WX    TMP DP  RH WIND       PRES   REMARKS
WILLISTON      CLOUDY    52  40  63 E3        30.01R
MINOT          MOCLDY    58  41  53 W12       29.95R
DICKINSON      CLOUDY    56  44  64 NW5       30.01R
BEACH            N/A     52  39  62 N5        30.09R
CROSBY           N/A     52  36  54 NW10      30.00S
TIOGA            N/A     50  39  66 NW8       30.00F
BISMARCK       MOCLDY    63  47  55 NW6       29.96R
GRAND FORKS    CLEAR     65  54  67 NW12      29.78R
FARGO          PTCLDY    66  61  84 NW10      29.80R
BUFFALO SD       N/A     60  45  57 SE6       29.99R
RAPID CITY     CLEAR     59  46  62 NW8       29.99S
$$

REGIONAL REPORTS...WYOMING/IDAHO/WASHINGTON

CITY           SKY/WX    TMP DP  RH WIND       PRES   REMARKS
GILLETTE       PTCLDY    59  40  49 CALM      30.03S
SHERIDAN       PTCLDY    52  42  69 CALM      30.03F
BUFFALO WY     CLOUDY    61  36  39 W6        30.09F
CODY           CLEAR     59  38  45 N10       30.09R
YELLOWSTONE LA   N/A     39  34  82 NW3       30.23F
IDAHO FALLS    CLOUDY    58  42  55 SW10      30.06R
SALMON         CLEAR     53  40  61 CALM      30.10R
BOISE          CLEAR     60  40  47 S5        30.01R
SPOKANE        PTCLDY    61  37  41 SW9       30.05S
$$

REGIONAL REPORTS...ALBERTA

CITY           SKY/WX    TMP DP  RH WIND       PRES   REMARKS
EDMONTON       PTCLDY    48  41  76 W7        29.95S
CALGARY        PTCLDY    52  37  58 SW3       30.01F
LETHBRIDGE     CLEAR     43  36  75 S10       30.00F
MEDICINE HAT   CLOUDY    52  45  76 E2        30.01S
$$

REGIONAL REPORTS...SASKATCHEWAN

CITY           SKY/WX    TMP DP  RH WIND       PRES   REMARKS
SWIFT CURRENT  MOCLDY    43  36  75 SW10      30.03R
REGINA         CLEAR     39  34  81 SW3       29.98S
SASKATOON      CLEAR     41  39  93 SW8       29.95R
$$




USA.gov is the U.S. government's official web portal to all federal, state and local government web resources and services.